Location: Newark
(39.1833°N, 3.3000°W)
Time: 15:30:35
(UTC+00:00)

ISS - Visible Passes

Search period start: 20 October 2019 00:00
Search period end: 30 October 2019 00:00
Orbit: 411 x 421 km, 51.6° (Epoch: 20 October)

Date Brightness Start Highest point End Pass type
(mag) Time Alt. Az. Time Alt. Az. Time Alt. Az.
23 Oct -1.3 05:33:48 10° S 05:36:33 23° SE 05:39:18 10° ENE visible
24 Oct -0.8 04:46:26 10° SSE 04:48:07 13° SE 04:49:49 10° E visible
25 Oct -3.6 05:32:31 10° SW 05:35:52 73° SE 05:39:13 10° NE visible
26 Oct -2.6 04:46:39 34° SSE 04:47:18 38° SE 04:50:28 10° ENE visible
27 Oct -0.5 04:00:39 14° E 04:00:39 14° E 04:01:26 10° E visible
27 Oct -3.2 05:33:35 22° W 05:35:21 40° NNW 05:38:34 10° NE visible
28 Oct -3.1 04:47:24 48° NNE 04:47:24 48° NNE 04:50:01 10° NE visible
29 Oct -0.4 04:01:05 12° ENE 04:01:05 12° ENE 04:01:21 10° ENE visible
29 Oct -2.1 05:34:00 18° NW 05:35:00 20° NNW 05:37:35 10° NNE visible
